Location: N�rnberg
(49.4489°N, 11.0797°E)
Time: 13:51:46
(UTC+01:00)

Amateur Radio Satellites - All Passes

Search period start: 24 November 2017 13:21
Search period end: 25 November 2017 13:21
Location: N�rnberg, 49.4489°N, 11.0797°E

Satellite Date Start Highest point End Downlink Frequencies (MHz)
Time Altitude Azimuth
50 SAT 24 Nov 13:22:16 13:24:54 22° 95° (E) 13:27:30 437.505
Gurwin Techsat 1B 24 Nov 13:23:14 13:28:31 66° 258° (WSW) 13:33:51 435.225
VELOX 1 24 Nov 13:24:35 13:29:04 82° 287° (WNW) 13:33:31 145.980
M-CUBED/EXP-1 PRIME 24 Nov 13:46:36 13:50:19 89° 82° (E) 13:54:24 437.505
SPROUT 24 Nov 13:56:30 14:00:04 26° 296° (WNW) 14:03:37 437.525
DX 1 24 Nov 13:59:17 14:03:38 56° 101° (ESE) 14:07:56 434.975-435.025
Oscar 19 24 Nov 14:12:32 14:16:14 20° 270° (W) 14:19:58 437.125/150
AO-91 24 Nov 14:13:07 14:17:15 22° 270° (W) 14:21:21 145.960
YUBILEINY 24 Nov 14:13:27 14:19:24 19° 51° (NE) 14:25:20 435.215
AO-7 24 Nov 14:16:07 14:24:22 75° 66° (ENE) 14:32:41 .
ITAMSAT 1 24 Nov 14:31:10 14:36:16 55° 69° (ENE) 14:41:23 435.822/435.867
UKube-1 24 Nov 14:34:06 14:38:28 81° 106° (ESE) 14:42:47 .
NO-84 24 Nov 14:48:15 14:51:49 50° 142° (SE) 14:55:41 435.350 FM
50 SAT 24 Nov 14:54:15 14:56:56 24° 293° (WNW) 14:59:34 437.505
O/OREOS (USA 219) 24 Nov 14:59:30 15:02:46 19° 316° (NW) 15:06:02 437.305
VELOX 1 24 Nov 15:02:51 15:04:48 13° 305° (NW) 15:06:44 145.980
MOZHAYETS 4 24 Nov 15:03:17 15:07:30 35° 97° (E) 15:11:42
Gurwin Techsat 1B 24 Nov 15:09:08 15:09:30 10° 277° (W) 15:09:53 435.225
BEESAT 24 Nov 15:11:27 15:15:43 32° 96° (E) 15:19:57 436.000
ITUPSAT 1 24 Nov 15:23:24 15:27:53 40° 98° (E) 15:32:21 437.325
DOVE 4 24 Nov 15:23:46 15:28:20 32° 64° (ENE) 15:33:00 437.250
CUBESAT XI-V 24 Nov 15:24:47 15:27:45 16° 89° (E) 15:30:42 437.345
DX 1 24 Nov 15:36:16 15:39:26 20° 300° (WNW) 15:42:36 434.975-435.025
XW-2D 24 Nov 15:54:27 15:55:12 10° 58° (ENE) 15:55:57 145.860 - 145.880
RS-15 24 Nov 15:58:35 16:02:22 12° 89° (E) 16:06:09 29.354- 29.394
XW-2B 24 Nov 16:08:03 16:10:01 14° 60° (ENE) 16:12:00 145.730 - 145.750
YUBILEINY 24 Nov 16:09:19 16:18:12 69° 76° (ENE) 16:26:59 435.215
AO-7 24 Nov 16:10:55 16:17:54 29° 267° (W) 16:24:57 .
UKube-1 24 Nov 16:11:30 16:13:54 15° 303° (WNW) 16:16:17 .
ITAMSAT 1 24 Nov 16:11:48 16:16:03 25° 267° (W) 16:20:19 435.822/435.867
NO-84 24 Nov 16:25:28 16:29:13 49° 343° (NNW) 16:33:14 435.350 FM
HO-68 24 Nov 16:26:57 16:32:20 23° 50° (NE) 16:37:43 435.675
CUTE-I 24 Nov 16:28:47 16:33:21 29° 61° (ENE) 16:37:55 437.470
KKS-1 24 Nov 16:30:48 16:33:36 16° 90° (E) 16:36:22 437.445
XW-2C 24 Nov 16:32:36 16:35:38 24° 66° (ENE) 16:38:42 145.795 - 145.815
LilacSat-2 24 Nov 16:38:45 16:42:02 29° 67° (ENE) 16:45:22 437.200
XW-2F 24 Nov 16:39:49 16:42:57 26° 67° (ENE) 16:46:07 145.980 - 146.000
MOZHAYETS 4 24 Nov 16:40:34 16:44:35 31° 295° (WNW) 16:48:35
BEESAT 24 Nov 16:49:10 16:53:32 36° 295° (WNW) 16:57:52 436.000
CUBESAT XI-V 24 Nov 17:00:55 17:05:36 70° 287° (WNW) 17:10:17 437.345
DOVE 4 24 Nov 17:00:56 17:05:50 44° 263° (W) 17:10:55 437.250
KAITUO 1B 24 Nov 17:01:12 17:04:33 34° 69° (ENE) 17:07:58 145.475/437.950
ITUPSAT 1 24 Nov 17:01:28 17:05:36 30° 297° (WNW) 17:09:43 437.325
XW-2D 24 Nov 17:24:59 17:28:44 89° 271° (W) 17:32:31 145.860 - 145.880
NUDT-PHONESAT 24 Nov 17:39:11 17:42:50 89° 82° (E) 17:46:31 437.300
XW-2B 24 Nov 17:40:01 17:43:44 63° 259° (W) 17:47:29 145.730 - 145.750
CUBEBUG 2 24 Nov 17:51:38 17:55:32 30° 66° (ENE) 17:59:21 437.445
CUTE 1.7 + AOD 2 24 Nov 17:54:01 17:58:02 46° 70° (ENE) 18:02:07 437.475
RS-15 24 Nov 18:00:02 18:11:39 52° 113° (ESE) 18:23:11 29.354- 29.394
NO-84 24 Nov 18:03:22 18:07:09 37° 4° (N) 18:11:06 435.350 FM
KKS-1 24 Nov 18:06:09 18:10:36 65° 288° (WNW) 18:14:59 437.445
XW-2C 24 Nov 18:06:20 18:09:42 31° 264° (W) 18:13:06 145.795 - 145.815
XW-2A 24 Nov 18:06:45 18:08:58 17° 64° (ENE) 18:11:13 145.665 - 145.685
YUBILEINY 24 Nov 18:06:52 18:14:21 32° 279° (W) 18:21:49 435.215
CUTE-I 24 Nov 18:07:55 18:13:08 51° 260° (W) 18:18:24 437.470
HO-68 24 Nov 18:11:57 18:19:10 85° 71° (ENE) 18:26:25 435.675
LilacSat-2 24 Nov 18:13:09 18:16:19 25° 266° (W) 18:19:31 437.200
XW-2F 24 Nov 18:13:45 18:17:00 28° 265° (W) 18:20:17 145.980 - 146.000
AAUSAT CUBESAT 2 24 Nov 18:13:56 18:17:13 23° 64° (ENE) 18:20:32 437.432
SEEDS 24 Nov 18:17:22 18:21:24 50° 71° (ENE) 18:25:29 437.485
STARS 24 Nov 18:20:00 18:24:25 76° 103° (ESE) 18:28:47 437.465
ZACube-1 24 Nov 18:23:46 18:26:55 20° 63° (ENE) 18:30:01 437.345
KAITUO 1B 24 Nov 18:35:48 18:38:38 21° 267° (W) 18:41:30 145.475/437.950
UWE-3 24 Nov 18:40:25 18:44:39 50° 71° (ENE) 18:48:48 435.000/436.395/437.385
CUBESAT XI-V 24 Nov 18:40:30 18:42:08 12° 306° (NW) 18:43:45 437.345
AO-73 24 Nov 19:11:19 19:15:26 49° 71° (ENE) 19:19:28 145.935
nSIGHT-1 24 Nov 19:14:03 19:15:29 12° 137° (SE) 19:16:57 .
STRAND 1 24 Nov 19:22:32 19:27:22 40° 97° (E) 19:32:09 437.568
Oscar 11 24 Nov 19:23:32 19:27:38 46° 70° (ENE) 19:31:47 .
CUBEBUG 2 24 Nov 19:27:57 19:32:05 35° 264° (W) 19:36:08 437.445
CUTE 1.7 + AOD 2 24 Nov 19:30:59 19:34:07 20° 269° (W) 19:37:17 437.475
XW-2A 24 Nov 19:38:21 19:41:26 36° 262° (W) 19:44:33 145.665 - 145.685
NO-84 24 Nov 19:40:50 19:44:59 68° 25° (NNE) 19:49:14 435.350 FM
KKS-1 24 Nov 19:45:26 19:46:17 10° 307° (NW) 19:47:08 437.445
DELFI C3 24 Nov 19:45:46 19:48:34 19° 62° (ENE) 19:51:23 145.870
AAUSAT CUBESAT 2 24 Nov 19:48:32 19:52:27 41° 262° (W) 19:56:25 437.432
SEEDS 24 Nov 19:54:27 19:57:23 18° 270° (W) 20:00:20 437.485
EO-88 24 Nov 19:56:35 19:57:50 11° 59° (ENE) 19:59:04 145.990 - 145.960
STARS 24 Nov 19:57:36 20:00:12 16° 303° (WNW) 20:02:48 437.465
ZACube-1 24 Nov 19:58:46 20:02:55 49° 261° (W) 20:07:01 437.345
HO-68 24 Nov 20:02:24 20:07:46 22° 271° (W) 20:13:10 435.675
SO-50 24 Nov 20:03:11 20:04:53 12° 109° (ESE) 20:06:35 436.795
FO-29 24 Nov 20:04:36 20:11:47 37° 92° (E) 20:18:31 435.910
Max Valier Satellite 24 Nov 20:05:22 20:07:59 19° 64° (ENE) 20:10:35 145.860
ISS 24 Nov 20:08:23 20:11:12 27° 145° (SE) 20:14:02 437.550
O/OREOS (USA 219) 24 Nov 20:08:29 20:08:37 10° 34° (NE) 20:08:44 437.305
RS-15 24 Nov 20:11:40 20:23:59 67° 319° (NW) 20:36:05 29.354- 29.394
UWE-3 24 Nov 20:18:11 20:21:22 20° 269° (W) 20:24:31 435.000/436.395/437.385
nSIGHT-1 24 Nov 20:48:00 20:51:11 58° 154° (SSE) 20:54:21 .
AO-73 24 Nov 20:48:55 20:51:56 19° 269° (W) 20:54:56 145.935
Oscar 11 24 Nov 21:00:45 21:04:01 21° 268° (W) 21:07:18 .
STRAND 1 24 Nov 21:01:55 21:06:28 33° 297° (WNW) 21:10:59 437.568
ESTCUBE 1 24 Nov 21:11:59 21:14:06 13° 56° (NE) 21:16:14 437.505/2401.250
NO-84 24 Nov 21:18:23 21:22:11 33° 223° (SW) 21:26:00 435.350 FM
DELFI C3 24 Nov 21:19:07 21:22:59 49° 261° (W) 21:26:53 145.870
EO-88 24 Nov 21:27:19 21:30:55 75° 257° (WSW) 21:34:34 145.990 - 145.960
Max Valier Satellite 24 Nov 21:38:06 21:41:33 39° 262° (W) 21:45:01 145.860
SO-50 24 Nov 21:40:05 21:44:33 80° 128° (SE) 21:49:06 436.795
LO-87 24 Nov 21:40:23 21:43:13 22° 66° (ENE) 21:46:03 145.935 - 145.965
ISS 24 Nov 21:44:10 21:47:27 82° 343° (NNW) 21:50:44 437.550
O/OREOS (USA 219) 24 Nov 21:44:54 21:49:17 44° 56° (ENE) 21:53:37 437.305
FO-29 24 Nov 21:49:25 21:57:08 60° 293° (WNW) 22:04:24 435.910
PRISM 24 Nov 21:49:51 21:52:26 16° 90° (E) 21:55:02 437.425
UNISAT 6 24 Nov 21:59:12 22:03:25 54° 100° (E) 22:07:35 437.425
TIGRISAT 24 Nov 22:02:30 22:06:41 53° 100° (E) 22:10:50 435.000
nSIGHT-1 24 Nov 22:24:16 22:27:27 58° 354° (N) 22:30:38 .
RS-15 24 Nov 22:27:47 22:39:07 40° 350° (N) 22:50:08 29.354- 29.394
ESTCUBE 1 24 Nov 22:45:43 22:50:12 85° 73° (ENE) 22:54:45 437.505/2401.250
VELOX 1 24 Nov 22:50:36 22:53:53 21° 61° (ENE) 22:57:12 145.980
PCSat 24 Nov 23:12:10 23:16:52 31° 112° (ESE) 23:21:37 145.827
LO-87 24 Nov 23:13:13 23:16:28 31° 263° (W) 23:19:44 145.935 - 145.965
QB50P2 24 Nov 23:16:31 23:19:27 18° 91° (E) 23:22:22 145.880/145.840
SPROUT 24 Nov 23:17:13 23:21:20 48° 70° (ENE) 23:25:28 437.525
ISS 24 Nov 23:20:53 23:24:07 56° 3° (N) 23:27:21 437.550
SO-50 24 Nov 23:21:51 23:25:31 24° 329° (NNW) 23:29:16 436.795
PRISM 24 Nov 23:23:58 23:28:06 59° 289° (WNW) 23:32:10 437.425
O/OREOS (USA 219) 24 Nov 23:24:43 23:28:29 26° 256° (WSW) 23:32:11 437.305
DX 1 24 Nov 23:25:25 23:27:22 13° 55° (NE) 23:29:18 434.975-435.025
AIST 2D 24 Nov 23:27:29 23:31:00 58° 100° (E) 23:34:29 435.315
FO-29 24 Nov 23:35:46 23:40:37 18° 315° (NW) 23:45:21 435.910
UNISAT 6 24 Nov 23:36:44 23:39:47 19° 299° (WNW) 23:42:48 437.425
TIGRISAT 24 Nov 23:39:59 23:43:02 19° 299° (WNW) 23:46:04 435.000
50 SAT 24 Nov 23:53:34 23:55:37 16° 63° (ENE) 23:57:41 437.505
UKube-1 24 Nov 23:58:19 00:01:01 16° 58° (ENE) 00:03:44 .
DUCHIFAT 1 24 Nov 23:59:11 00:03:00 33° 96° (E) 00:06:46 145.980
nSIGHT-1 25 Nov 00:00:40 00:03:54 72° 15° (NNE) 00:07:05 .
EO-79 25 Nov 00:11:16 00:15:24 56° 101° (E) 00:19:31 145.935-145.965
NANOSAT C BR1 25 Nov 00:11:52 00:15:58 51° 100° (E) 00:20:01 145.865
VELOX 1 25 Nov 00:25:36 00:29:58 55° 259° (W) 00:34:23 145.980
ESTCUBE 1 25 Nov 00:25:47 00:27:38 12° 273° (W) 00:29:31 437.505/2401.250
POLYITAN 1 25 Nov 00:27:40 00:31:53 83° 104° (ESE) 00:36:05 437.675
BUGSAT 1 25 Nov 00:36:42 00:39:49 21° 93° (E) 00:42:56 437.445
Oscar 19 25 Nov 00:39:38 00:42:51 16° 88° (E) 00:46:04 437.125/150
RS-15 25 Nov 00:43:33 00:55:10 46° 24° (NNE) 01:06:11 29.354- 29.394
BEESAT 25 Nov 00:48:29 00:49:27 11° 51° (NE) 00:50:26 436.000
QB50P2 25 Nov 00:51:27 00:55:33 51° 289° (WNW) 00:59:37 145.880/145.840
SPROUT 25 Nov 00:54:17 00:57:28 20° 268° (W) 01:00:40 437.525
PCSat 25 Nov 00:54:45 01:00:03 53° 312° (NW) 01:05:23 145.827
ISS 25 Nov 00:57:25 01:00:42 70° 203° (SSW) 01:03:56 437.550
DX 1 25 Nov 00:58:28 01:02:51 84° 72° (ENE) 01:07:16 434.975-435.025
ITUPSAT 1 25 Nov 00:59:33 01:01:42 13° 53° (NE) 01:03:51 437.325
AIST 2D 25 Nov 01:01:59 01:03:44 13° 299° (WNW) 01:05:29 435.315
SO-50 25 Nov 01:05:36 01:07:35 13° 354° (N) 01:09:35 436.795
50 SAT 25 Nov 01:24:23 01:27:25 37° 261° (W) 01:30:28 437.505
UKube-1 25 Nov 01:32:14 01:36:32 70° 257° (WSW) 01:40:53 .
DUCHIFAT 1 25 Nov 01:35:00 01:38:34 28° 295° (WNW) 01:42:07 145.980
Gurwin Techsat 1B 25 Nov 01:35:09 01:40:03 35° 96° (E) 01:44:54 435.225
nSIGHT-1 25 Nov 01:37:03 01:39:58 32° 213° (SSW) 01:42:52 .
BEESAT 3 25 Nov 01:40:35 01:44:03 29° 118° (ESE) 01:47:32 437.485
EO-79 25 Nov 01:47:54 01:50:46 18° 300° (WNW) 01:53:39 145.935-145.965
NANOSAT C BR1 25 Nov 01:48:18 01:51:20 20° 298° (WNW) 01:54:21 145.865
AO-91 25 Nov 01:58:02 02:02:38 76° 102° (ESE) 02:06:43 145.960
POLYITAN 1 25 Nov 02:05:01 02:07:04 13° 303° (WNW) 02:09:07 437.675
MOZHAYETS 4 25 Nov 02:08:55 02:13:22 55° 71° (ENE) 02:17:50
BUGSAT 1 25 Nov 02:11:33 02:15:21 40° 291° (WNW) 02:19:05 437.445
AO-7 25 Nov 02:14:18 02:19:34 18° 86° (E) 02:24:46 .
Oscar 19 25 Nov 02:17:36 02:22:47 80° 287° (WNW) 02:27:58 437.125/150
BEESAT 25 Nov 02:21:35 02:26:16 60° 71° (ENE) 02:30:59 436.000
CUBESAT XI-V 25 Nov 02:31:48 02:35:36 26° 63° (ENE) 02:39:26 437.345
ITUPSAT 1 25 Nov 02:33:57 02:38:44 76° 72° (ENE) 02:43:31 437.325
ISS 25 Nov 02:34:38 02:36:43 16° 221° (SW) 02:38:47 437.550
DX 1 25 Nov 02:37:51 02:39:38 12° 272° (W) 02:41:25 434.975-435.025
PCSat 25 Nov 02:41:03 02:44:42 18° 336° (NNW) 02:48:21 145.827
ITAMSAT 1 25 Nov 02:41:21 02:43:48 13° 86° (E) 02:46:13 435.822/435.867
SO-50 25 Nov 02:47:05 02:49:54 16° 19° (NNE) 02:52:44 436.795
M-CUBED/EXP-1 PRIME 25 Nov 02:54:23 02:58:37 36° 102° (ESE) 03:02:54 437.505
RS-15 25 Nov 02:57:00 03:09:02 86° 234° (SW) 03:20:23 29.354- 29.394
AO-85 25 Nov 02:57:47 03:00:40 20° 114° (ESE) 03:03:40 145.980
BEESAT 2 25 Nov 03:01:10 03:05:05 54° 124° (SE) 03:09:03 435.950
Gurwin Techsat 1B 25 Nov 03:15:06 03:20:02 39° 295° (WNW) 03:24:56 435.225
BEESAT 3 25 Nov 03:17:40 03:21:28 40° 317° (NW) 03:25:18 437.485
YUBILEINY 25 Nov 03:24:05 03:28:43 16° 70° (ENE) 03:33:23 435.215
KKS-1 25 Nov 03:32:22 03:36:05 26° 63° (ENE) 03:39:49 437.445
AO-91 25 Nov 03:35:41 03:38:24 16° 304° (NW) 03:40:57 145.960
STARS 25 Nov 03:46:04 03:48:51 17° 58° (ENE) 03:51:40 437.465
MOZHAYETS 4 25 Nov 03:47:34 03:50:51 19° 269° (W) 03:54:10
Oscar 19 25 Nov 03:58:29 04:01:20 15° 307° (NW) 04:04:11 437.125/150
BEESAT 25 Nov 04:01:00 04:04:27 20° 269° (W) 04:07:54 436.000
AO-7 25 Nov 04:05:23 04:13:47 74° 107° (ESE) 04:22:08 .
CUBESAT XI-V 25 Nov 04:08:23 04:12:46 44° 262° (W) 04:17:13 437.345
ITUPSAT 1 25 Nov 04:14:16 04:17:07 16° 271° (W) 04:19:57 437.325
ITAMSAT 1 25 Nov 04:18:48 04:24:04 84° 104° (ESE) 04:29:16 435.822/435.867
SO-50 25 Nov 04:27:04 04:31:30 43° 41° (NE) 04:35:59 436.795
PCSat 25 Nov 04:28:20 04:30:25 12° 2° (N) 04:32:30 145.827
M-CUBED/EXP-1 PRIME 25 Nov 04:28:48 04:32:56 34° 300° (WNW) 04:37:07 437.505
AO-85 25 Nov 04:36:47 04:40:40 54° 315° (NW) 04:44:48 145.980
BEESAT 2 25 Nov 04:39:36 04:43:04 26° 324° (NW) 04:46:33 435.950
DOVE 4 25 Nov 04:55:24 05:00:21 43° 96° (E) 05:05:00 437.250
BEESAT 3 25 Nov 04:58:10 05:00:02 13° 339° (NNW) 05:01:54 437.485
STRAND 1 25 Nov 05:06:03 05:09:08 16° 54° (NE) 05:12:13 437.568
KKS-1 25 Nov 05:08:12 05:12:27 42° 261° (W) 05:16:45 437.445
XW-2B 25 Nov 05:10:31 05:11:09 10° 87° (E) 05:11:49 145.730 - 145.750
RS-15 25 Nov 05:10:37 05:19:47 28° 258° (WSW) 05:28:38 29.354- 29.394
YUBILEINY 25 Nov 05:15:05 05:23:44 67° 93° (E) 05:32:28 435.215
STARS 25 Nov 05:20:15 05:24:41 72° 257° (WSW) 05:29:08 437.465
XW-2C 25 Nov 05:34:31 05:37:21 19° 92° (E) 05:40:10 145.795 - 145.815
HO-68 25 Nov 05:37:40 05:40:28 12° 82° (E) 05:43:15 435.675
XW-2F 25 Nov 05:41:10 05:44:08 21° 93° (E) 05:47:05 145.980 - 146.000
LilacSat-2 25 Nov 05:41:29 05:44:42 25° 94° (E) 05:47:53 437.200
AO-7 25 Nov 05:58:44 06:05:58 35° 309° (NW) 06:13:13 .
ITAMSAT 1 25 Nov 05:59:25 06:02:53 18° 305° (NW) 06:06:20 435.822/435.867
KAITUO 1B 25 Nov 06:01:31 06:04:48 27° 95° (E) 06:08:04 145.475/437.950
SO-50 25 Nov 06:07:42 06:11:54 35° 241° (WSW) 06:16:10 436.795
PCSat 25 Nov 06:12:02 06:16:02 20° 28° (NNE) 06:20:00 145.827
AO-85 25 Nov 06:19:30 06:22:02 16° 338° (NNW) 06:24:39 145.980
CUTE-I 25 Nov 06:20:21 06:25:32 46° 99° (E) 06:30:40 437.470
BEESAT 2 25 Nov 06:21:10 06:22:07 11° 347° (NNW) 06:23:04 435.950
FO-29 25 Nov 06:21:15 06:27:11 29° 54° (NE) 06:33:29 435.910
XW-2D 25 Nov 06:27:01 06:30:50 75° 102° (ESE) 06:34:39 145.860 - 145.880
DOVE 4 25 Nov 06:33:20 06:37:50 31° 297° (WNW) 06:42:09 437.250
NUDT-PHONESAT 25 Nov 06:38:28 06:42:12 68° 102° (ESE) 06:45:54 437.300
XW-2B 25 Nov 06:42:01 06:45:51 78° 285° (WNW) 06:49:40 145.730 - 145.750
STRAND 1 25 Nov 06:42:26 06:47:35 86° 75° (ENE) 06:52:47 437.568
XW-2C 25 Nov 07:08:06 07:11:41 40° 290° (WNW) 07:15:16 145.795 - 145.815
CUTE 1.7 + AOD 2 25 Nov 07:09:54 07:14:06 52° 99° (E) 07:18:17 437.475
YUBILEINY 25 Nov 07:13:25 07:21:14 35° 297° (WNW) 07:29:08 435.215
CUBEBUG 2 25 Nov 07:14:00 07:17:49 34° 96° (E) 07:21:35 437.445
XW-2F 25 Nov 07:14:50 07:18:21 36° 291° (WNW) 07:21:51 145.980 - 146.000
LilacSat-2 25 Nov 07:15:33 07:18:59 32° 292° (WNW) 07:22:26 437.200
HO-68 25 Nov 07:22:33 07:29:42 62° 103° (ESE) 07:36:47 435.675
AAUSAT CUBESAT 2 25 Nov 07:26:17 07:29:40 23° 93° (E) 07:33:01 437.432
UNISAT 6 25 Nov 07:28:21 07:30:05 12° 56° (NE) 07:31:49 437.425
TIGRISAT 25 Nov 07:31:34 07:33:15 12° 56° (NE) 07:34:55 435.000
SEEDS 25 Nov 07:32:02 07:36:14 55° 100° (E) 07:40:25 437.485
KAITUO 1B 25 Nov 07:35:29 07:38:44 28° 293° (WNW) 07:41:59 145.475/437.950
ZACube-1 25 Nov 07:42:48 07:46:05 22° 93° (E) 07:49:22 437.345
AO-7 25 Nov 07:53:19 07:56:17 12° 334° (NNW) 07:59:15 .
PCSat 25 Nov 07:55:01 08:00:27 66° 51° (NE) 08:05:50 145.827
CUTE-I 25 Nov 08:00:44 08:05:24 31° 298° (WNW) 08:10:03 437.470
BEESAT 2 25 Nov 08:01:06 08:01:41 10° 11° (NNE) 08:02:16 435.950
UWE-3 25 Nov 08:01:40 08:05:47 61° 101° (E) 08:09:54 435.000/436.395/437.385
XW-2D 25 Nov 08:02:48 08:04:29 13° 301° (WNW) 08:06:09 145.860 - 145.880
AO-85 25 Nov 08:03:04 08:04:16 11° 4° (N) 08:05:27 145.980
FO-29 25 Nov 08:04:24 08:11:24 80° 256° (WSW) 08:19:10 435.910
NUDT-PHONESAT 25 Nov 08:13:47 08:15:33 13° 300° (WNW) 08:17:18 437.300
BEESAT 3 25 Nov 08:15:51 08:18:28 17° 27° (NNE) 08:21:05 437.485
STRAND 1 25 Nov 08:24:34 08:27:28 15° 273° (W) 08:30:22 437.568
XW-2A 25 Nov 08:27:42 08:31:04 66° 286° (WNW) 08:34:25 145.665 - 145.685
AO-73 25 Nov 08:30:36 08:34:42 59° 101° (E) 08:38:50 145.935
Oscar 11 25 Nov 08:42:06 08:46:22 53° 100° (E) 08:50:36 .
PRISM 25 Nov 08:42:44 08:45:52 21° 62° (ENE) 08:49:02 437.425
CUTE 1.7 + AOD 2 25 Nov 08:46:28 08:49:36 20° 298° (WNW) 08:52:44 437.475
CUBEBUG 2 25 Nov 08:50:50 08:54:21 27° 295° (WNW) 08:57:50 437.445
DELFI C3 25 Nov 08:52:24 08:54:53 16° 90° (E) 08:57:21 145.870
AAUSAT CUBESAT 2 25 Nov 09:01:19 09:05:16 40° 291° (WNW) 09:09:10 437.432
UNISAT 6 25 Nov 09:01:35 09:06:06 80° 74° (ENE) 09:10:32 437.425
Max Valier Satellite 25 Nov 09:04:29 09:06:26 14° 90° (E) 09:08:22 145.860
TIGRISAT 25 Nov 09:04:43 09:09:13 79° 76° (ENE) 09:13:39 435.000
SEEDS 25 Nov 09:08:33 09:11:32 19° 299° (WNW) 09:14:32 437.485
HO-68 25 Nov 09:10:46 09:17:04 35° 304° (WNW) 09:23:21 435.675
ZACube-1 25 Nov 09:18:37 09:22:32 41° 291° (WNW) 09:26:27 437.345
EO-79 25 Nov 09:35:36 09:36:27 10° 55° (NE) 09:37:16 145.935-145.965
BEESAT 2 25 Nov 09:37:26 09:40:48 24° 34° (NE) 09:44:08 435.950
PCSat 25 Nov 09:39:08 09:43:24 24° 251° (WSW) 09:47:39 145.827
UWE-3 25 Nov 09:39:11 09:41:50 17° 300° (WNW) 09:44:28 435.000/436.395/437.385
AO-85 25 Nov 09:43:04 09:46:22 20° 28° (NNE) 09:49:49 145.980
POLYITAN 1 25 Nov 09:50:31 09:52:49 14° 58° (ENE) 09:55:06 437.675
BEESAT 3 25 Nov 09:52:44 09:56:43 71° 49° (NE) 10:00:37 437.485
FO-29 25 Nov 09:53:00 09:57:43 19° 278° (W) 10:02:43 435.910
AIST 2D 25 Nov 10:05:25 10:08:39 39° 71° (ENE) 10:11:56 435.315
AO-73 25 Nov 10:07:49 10:10:33 17° 299° (WNW) 10:13:17 145.935
QB50P2 25 Nov 10:12:50 10:16:15 24° 64° (ENE) 10:19:41 145.880/145.840
PRISM 25 Nov 10:16:52 10:20:51 47° 260° (W) 10:24:54 437.425
Oscar 11 25 Nov 10:18:59 10:22:09 20° 298° (WNW) 10:25:19 .
EO-88 25 Nov 10:24:55 10:28:35 77° 102° (ESE) 10:32:15 145.990 - 145.960
DELFI C3 25 Nov 10:26:02 10:29:58 55° 288° (WNW) 10:33:51 145.870
ESTCUBE 1 25 Nov 10:35:14 10:37:33 14° 88° (E) 10:39:53 437.505/2401.250
LO-87 25 Nov 10:36:17 10:38:20 15° 90° (E) 10:40:21 145.935 - 145.965
Max Valier Satellite 25 Nov 10:36:58 10:40:35 54° 287° (WNW) 10:44:10 145.860
UNISAT 6 25 Nov 10:41:11 10:43:21 13° 272° (W) 10:45:30 437.425
TIGRISAT 25 Nov 10:44:14 10:46:27 13° 272° (W) 10:48:38 435.000
DUCHIFAT 1 25 Nov 10:54:33 10:58:31 42° 69° (ENE) 11:02:30 145.980
EO-79 25 Nov 11:07:13 11:11:26 73° 73° (ENE) 11:15:40 145.935-145.965
NANOSAT C BR1 25 Nov 11:07:28 11:11:38 65° 73° (ENE) 11:15:50 145.865
BEESAT 2 25 Nov 11:14:51 11:18:52 62° 235° (SW) 11:22:48 435.950
AO-85 25 Nov 11:22:55 11:27:30 71° 48° (NE) 11:32:26 145.980
AO-91 25 Nov 11:23:13 11:26:56 19° 58° (ENE) 11:30:34 145.960
Gurwin Techsat 1B 25 Nov 11:23:19 11:26:31 16° 53° (NE) 11:29:42 435.225
POLYITAN 1 25 Nov 11:23:48 11:28:02 78° 257° (WSW) 11:32:17 437.675
BUGSAT 1 25 Nov 11:29:59 11:33:32 28° 65° (ENE) 11:37:04 437.445
AO-7 25 Nov 11:30:34 11:34:20 14° 30° (NNE) 11:38:07 .
BEESAT 3 25 Nov 11:31:26 11:33:44 15° 248° (WSW) 11:36:02 437.485
AIST 2D 25 Nov 11:39:44 11:42:00 16° 269° (W) 11:44:18 435.315
QB50P2 25 Nov 11:47:51 11:51:51 40° 262° (W) 11:55:52 145.880/145.840
Oscar 19 25 Nov 12:00:06 12:04:45 37° 65° (ENE) 12:09:26 437.125/150
EO-88 25 Nov 12:00:27 12:01:41 11° 301° (WNW) 12:02:54 145.990 - 145.960
O/OREOS (USA 219) 25 Nov 12:02:18 12:05:48 22° 103° (ESE) 12:09:19 437.305
LO-87 25 Nov 12:08:34 12:11:59 46° 289° (WNW) 12:15:23 145.935 - 145.965
ESTCUBE 1 25 Nov 12:10:22 12:14:56 79° 285° (WNW) 12:19:28 437.505/2401.250
VELOX 1 25 Nov 12:11:42 12:15:05 21° 92° (E) 12:18:25 145.980
M-CUBED/EXP-1 PRIME 25 Nov 12:12:26 12:13:56 12° 48° (NE) 12:15:29 437.505
DUCHIFAT 1 25 Nov 12:31:05 12:34:21 22° 267° (W) 12:37:39 145.980
SPROUT 25 Nov 12:33:59 12:38:09 50° 100° (E) 12:42:16 437.525
DX 1 25 Nov 12:44:52 12:45:50 11° 86° (E) 12:46:49 434.975-435.025
NANOSAT C BR1 25 Nov 12:45:23 12:47:47 15° 271° (W) 12:50:11 145.865
EO-79 25 Nov 12:45:36 12:47:41 13° 272° (W) 12:49:46 145.935-145.965
AO-91 25 Nov 12:57:20 13:02:46 84° 256° (WSW) 13:08:05 145.960
Gurwin Techsat 1B 25 Nov 13:00:22 13:05:41 83° 72° (ENE) 13:11:03 435.225
AO-85 25 Nov 13:04:03 13:07:35 21° 246° (WSW) 13:11:16 145.980
BUGSAT 1 25 Nov 13:05:01 13:08:48 33° 263° (W) 13:12:35 437.445
UKube-1 25 Nov 13:16:08 13:18:30 14° 89° (E) 13:20:50 .
